Погода в Салвадоре

Бразилия     12°59′59″S   38°27′57″W
темп.,
°C
ветер,
м/с
пор.,
м/с
влажн.,
%
обл.,
%
осадки,
мм/ч
давл.,
гПа
погр.,
м
19 января, вт
вт1900:00+26в45750 0.1 1014834
03:00+26в34731 0.4 1012798
06:00+26св336817 0.0 1014828
09:00+26юз227119 0.1 1014617
12:00+27юв45688 0.1 1014810
15:00+27юв67704 0.1 1011807
18:00+27вюв56700 0.0 1012988
21:00+27в67743 0.3 1014858
20 января, ср
ср2000:00+26в677625 1.5 1014919
03:00+26в567527 2.7 1013894
06:00+26в567634 2.4 1014708
09:00+26вюв677348 6.7 1015771
12:00+27вюв77755 1.1 1014826
15:00+27вюв77782 1.1 1012777
18:00+26вюв67761 0.0 1012921
21:00+26в67756 0.1 1014991
21 января, чт
чт2100:00+26в66750 0.1 1013943
03:00+26в66764 0.3 1012906
06:00+26в557142 0.1 1014913
09:00+26юв447356 0.6 1016678
12:00+27юв5569100 1.4 1015842
15:00+27вюв7773100 1.5 1013938
18:00+27вюв787565 0.0 10141006
21:00+27вюв677378 0.0 1016953
22 января, пт
пт2200:00+26в6778100 0.5 1015835
03:00+26вюв6676100 0.8 1014929
06:00+26вюв5674100 0.3 1015921
09:00+26вюв5572100 0.6 1017901
12:00+27юв5671100 0.1 1016871
15:00+27юв6767100 0.1 1014780
18:00+26юв787688 0.2 1015898
21:00+26вюв787663 1.0 1017941
23 января, сб
сб2300:00+26юв677654 0.1 1015919
03:00+26вюв677867 0.9 1014852
06:00+26юв667786 0.6 1015820
09:00+26вюв777693 1.4 1017932
12:00+27юв677498 0.0 1016985
15:00+27юв787572 0.0 1013945
18:00+27юв897935 0.1 1014918
21:00+26вюв797839 0.5 1015954